Theta_e
315 318 320 321 320 318 316 317 321 321 321 323 322 323 323 323 323 319 314 310 309 313 315 315 314 314 315 314 315 315 313 311 312 312 312 312 313 313 314 314 316 319 321 323 324 325 328 329 329 330 330 331 331 331 331 331 331 331 331 331 330 330 329 330 330 330 330 330 330 330 330 330 330 330 329 328 329 330 331 331 331 331 332 331 332 332
315 320 323 322 320 318 316 317 319 318 319 320 320 321 321 320 321 318 313 310 308 312 316 315 313 314 314 314 314 314 313 312 312 312 313 313 313 313 313 314 314 315 316 317 318 321 324 326 328 329 329 330 330 330 330 330 331 331 331 331 331 330 330 330 330 331 331 330 331 331 331 331 331 331 330 329 329 329 330 331 332 332 332 332 332 332
318 321 322 320 319 319 317 317 318 318 317 318 318 320 321 319 318 317 313 310 309 311 316 315 312 314 315 314 313 313 313 313 313 312 313 313 313 313 312 312 313 313 314 313 313 316 320 323 326 327 328 329 330 330 330 330 331 331 331 331 331 331 331 330 330 331 331 331 331 332 332 332 332 331 331 330 330 329 329 330 331 332 333 333 332 332
322 322 320 318 318 319 319 317 318 319 318 318 319 320 322 319 319 322 315 310 309 310 313 313 312 314 315 315 314 313 312 312 313 312 312 312 313 313 313 313 313 312 314 313 312 312 315 320 324 326 327 328 329 330 330 330 331 331 331 331 331 331 331 331 330 331 331 331 332 332 332 332 332 331 331 330 330 329 329 329 329 329 330 331 331 332
323 321 318 318 318 318 318 315 316 320 319 319 318 320 322 318 318 321 315 311 311 311 310 311 314 316 316 317 317 316 314 311 312 312 311 312 312 312 313 314 313 313 314 314 313 312 313 315 319 323 326 327 328 329 330 330 330 330 330 330 331 331 331 331 331 330 330 331 332 332 332 332 332 332 331 331 330 330 329 329 328 327 327 328 329 330
321 318 317 319 318 318 317 315 316 319 320 319 318 318 320 319 317 316 313 314 319 318 312 311 320 322 317 317 318 318 316 312 312 312 311 312 312 311 311 312 313 313 313 313 313 314 314 313 315 319 323 325 327 327 328 329 329 329 329 330 330 331 331 331 331 330 330 331 332 331 332 332 332 332 331 331 330 330 329 329 329 328 328 328 328 328
318 316 317 318 319 320 319 317 316 318 321 322 318 315 317 318 318 315 314 318 323 322 313 310 319 322 316 315 316 315 315 313 313 312 312 312 312 311 310 310 312 312 313 314 313 312 313 313 313 315 318 320 322 322 325 327 327 328 329 329 330 330 330 330 330 330 329 331 331 330 331 331 331 331 331 331 330 330 330 329 329 329 329 328 328 328
315 315 317 318 320 320 320 318 316 316 321 322 318 314 314 316 317 316 315 318 319 316 313 311 313 315 314 315 315 314 314 313 313 313 312 312 312 311 310 310 311 312 313 314 314 312 312 313 312 312 313 314 315 318 322 324 325 326 328 329 329 329 329 329 330 330 329 330 330 330 330 330 330 330 330 330 330 330 330 329 329 329 329 329 328 328
315 315 317 318 319 319 320 319 315 315 319 317 313 313 313 314 315 314 314 315 314 314 317 315 312 316 318 315 313 314 313 314 314 314 314 313 312 312 311 310 311 312 313 313 313 314 313 313 312 311 311 311 311 314 318 320 321 324 326 328 329 329 329 328 328 329 329 329 329 330 330 330 330 329 330 330 330 330 329 329 329 329 330 329 328 328
316 315 316 317 319 319 319 317 314 314 316 311 310 312 313 313 314 313 314 315 314 316 320 318 314 319 322 316 314 313 312 314 316 315 315 315 314 314 312 312 311 311 313 314 313 313 313 313 312 311 310 309 309 310 312 314 318 321 324 326 327 327 328 328 328 328 329 329 329 329 330 330 329 329 329 329 330 329 329 329 329 329 330 329 328 328
313 313 315 316 317 316 314 313 313 314 313 309 310 312 312 313 312 313 313 313 317 321 322 318 314 316 322 319 316 315 314 314 316 316 315 315 315 315 314 314 313 311 312 315 314 312 311 311 310 309 308 308 308 308 308 310 314 317 320 323 325 326 327 327 327 327 328 328 328 328 329 330 329 329 329 329 329 329 329 329 329 329 329 329 328 328
312 314 315 313 312 312 311 311 311 311 312 312 312 313 314 313 312 313 313 313 322 326 319 313 313 315 321 320 315 316 315 312 314 315 315 315 314 315 315 313 312 311 311 312 313 311 310 309 308 307 306 307 307 306 306 307 310 314 317 321 324 325 326 327 327 327 328 328 328 328 329 329 329 329 329 328 328 329 328 328 329 329 329 329 329 328
313 315 313 310 309 311 313 313 310 309 312 313 313 316 318 317 317 319 316 314 321 322 311 308 311 313 318 318 314 314 314 313 313 313 314 315 314 314 315 315 315 314 312 310 310 311 311 309 309 308 307 307 307 306 305 305 307 311 315 319 323 325 326 327 327 327 327 327 327 327 328 328 329 329 329 328 328 328 328 328 329 329 329 329 329 329
315 315 312 310 310 311 315 315 311 310 311 312 313 319 321 318 321 325 320 316 320 316 307 306 310 314 316 316 314 313 314 314 312 311 312 313 313 313 314 314 314 313 311 309 309 311 313 313 312 311 309 308 307 306 305 305 306 308 312 317 321 323 324 326 326 326 326 327 327 327 327 328 328 328 329 329 328 328 328 328 328 329 329 329 329 329
320 320 315 312 312 312 315 315 313 312 312 313 315 320 321 319 322 327 323 320 321 314 307 307 312 317 317 315 312 311 312 312 310 309 310 310 310 310 311 310 309 309 309 311 311 311 312 312 312 311 310 308 307 306 305 304 305 307 310 314 318 321 323 325 325 325 326 326 327 327 327 327 328 328 328 328 328 328 328 328 328 328 329 329 329 329
322 321 314 313 313 312 315 316 314 313 313 314 316 318 321 318 317 317 316 315 315 313 310 309 313 316 314 312 311 311 312 311 310 309 309 310 309 309 310 309 309 309 309 311 312 311 310 310 310 310 310 308 306 305 304 303 304 305 308 311 316 319 322 323 324 324 325 326 326 326 326 327 327 327 327 328 328 328 328 328 328 328 328 328 329 329
323 319 311 311 311 310 315 316 313 315 315 314 316 317 317 315 312 312 311 308 309 316 316 312 312 313 313 314 313 313 314 312 311 310 308 309 310 310 311 312 313 313 313 313 312 311 311 311 311 310 309 308 307 306 304 303 303 304 306 309 314 318 320 322 323 323 325 325 325 326 326 326 326 327 327 327 327 327 328 328 328 328 328 328 329 329
322 316 308 310 312 310 313 314 313 315 315 314 316 316 314 314 313 313 313 310 310 317 317 312 313 314 314 317 314 312 314 313 314 312 310 310 310 310 313 315 315 315 315 313 310 309 309 310 312 311 308 307 308 308 306 305 303 303 304 306 311 315 318 320 322 322 323 324 325 325 325 325 326 326 326 326 327 327 327 327 327 328 328 328 328 329
319 316 310 309 312 310 310 313 313 313 313 314 316 315 315 317 317 314 312 313 313 315 315 312 311 311 313 316 314 311 312 312 312 313 313 312 310 311 314 315 315 315 315 312 309 308 308 309 312 311 308 307 307 308 308 307 306 304 304 304 308 312 315 317 319 321 322 323 324 324 325 325 325 325 325 326 326 326 326 327 327 327 327 327 328 329
317 318 313 309 310 310 309 312 315 312 311 312 314 315 314 316 318 316 312 313 315 316 316 315 312 312 314 314 313 313 312 311 312 312 313 314 313 313 313 314 316 317 315 312 309 308 308 309 310 308 307 307 307 308 308 308 308 307 306 305 306 309 312 315 318 319 321 322 323 323 324 325 325 325 325 325 326 326 326 326 326 326 327 327 328 329
315 316 315 310 309 310 310 312 315 314 310 310 313 315 314 312 313 316 313 312 314 316 316 317 317 315 313 311 312 314 313 313 314 314 314 315 314 314 314 315 316 315 312 309 307 307 307 309 309 307 306 306 306 307 307 308 308 308 308 307 307 308 310 313 315 317 319 320 321 322 323 324 324 324 325 325 325 326 326 326 326 327 327 328 328 329
315 314 315 311 308 311 311 310 312 313 311 311 313 314 315 313 312 317 318 313 311 313 313 314 317 317 314 311 310 312 313 313 314 314 315 315 314 314 315 315 313 312 310 307 306 306 306 308 310 308 307 306 307 307 307 308 308 309 309 309 309 309 309 311 313 315 317 318 320 321 322 323 323 323 324 325 325 325 325 326 326 327 327 328 328 328
315 313 314 312 310 311 310 307 308 313 313 312 313 313 314 314 313 318 321 315 310 310 309 309 312 316 315 312 310 311 312 312 314 314 312 312 311 311 314 316 314 312 310 307 305 305 305 308 310 308 307 307 307 308 308 308 309 309 309 309 309 309 309 310 311 313 315 317 318 319 321 321 322 323 323 324 325 325 325 325 326 327 327 328 328 328
315 314 313 312 311 310 309 308 308 311 312 312 312 312 313 314 314 313 313 313 312 311 311 311 313 315 314 312 311 311 311 310 311 310 310 311 310 310 313 317 316 313 312 309 305 303 305 308 307 307 308 308 307 308 309 309 309 308 308 308 308 309 309 310 310 312 313 315 317 318 319 320 321 322 323 323 324 325 325 325 326 327 327 327 327 327
318 317 314 313 313 312 312 311 311 310 310 311 312 312 312 314 313 310 307 310 313 314 313 314 316 317 313 310 310 309 308 310 310 308 308 312 314 314 314 314 312 312 315 314 308 303 304 306 306 307 309 308 308 308 309 309 308 308 308 308 308 308 309 310 310 311 312 314 315 317 318 319 320 321 322 323 324 324 325 325 326 326 326 327 327 326
318 317 316 317 317 316 316 315 313 312 310 310 310 311 312 313 312 311 310 311 313 314 314 315 317 316 310 308 309 308 308 310 311 309 308 309 312 315 316 315 314 314 317 316 312 306 304 305 306 306 307 308 308 308 308 308 308 308 308 308 308 308 309 309 311 311 312 313 314 315 317 318 319 321 322 323 323 324 324 325 325 326 326 325 325 325
318 316 317 319 318 317 319 317 315 313 311 310 311 311 312 312 312 313 313 313 314 314 313 314 316 316 312 309 309 310 310 311 311 311 310 311 313 316 318 317 314 313 312 312 311 307 305 305 305 306 306 307 308 307 307 307 307 308 308 307 307 308 308 309 310 311 312 313 313 314 316 317 318 320 321 322 323 323 324 324 324 325 325 324 323 323
318 317 317 319 319 318 319 319 316 314 313 312 312 312 312 312 312 314 315 315 315 313 313 313 314 315 315 311 309 311 312 312 311 310 309 311 313 314 315 315 314 315 314 313 312 309 306 306 305 305 305 305 306 306 307 308 308 309 308 307 307 307 307 309 310 311 312 313 314 315 315 316 318 319 321 322 322 323 323 323 323 324 323 322 321 322
317 318 318 319 320 319 318 318 316 314 314 313 312 312 312 312 312 313 315 315 314 313 314 315 315 315 314 311 310 311 311 311 311 309 307 308 310 312 315 317 318 321 325 324 318 312 308 307 306 306 305 304 304 305 306 307 309 310 309 308 307 307 308 309 311 312 313 315 316 316 317 317 318 319 320 321 321 321 322 322 321 322 321 320 320 320
318 318 318 318 318 317 316 317 316 314 314 313 312 312 312 312 312 312 313 314 313 313 314 314 316 315 314 313 311 311 312 311 310 309 308 310 311 312 315 316 315 319 326 330 325 318 311 309 307 306 305 304 303 304 306 307 308 310 310 309 309 308 309 311 312 313 314 315 316 317 317 317 318 318 319 320 320 320 320 319 319 320 320 319 319 319
318 319 318 316 317 316 314 315 316 314 314 313 313 312 311 311 312 312 312 313 313 314 313 314 315 315 314 314 313 312 312 312 311 311 311 312 313 313 313 313 313 315 319 323 325 321 314 309 308 307 305 304 303 303 305 306 307 310 310 310 310 310 311 311 313 314 315 316 316 316 317 317 317 317 318 319 319 318 317 317 318 319 318 316 316 316
316 318 317 315 317 317 313 312 314 314 314 315 314 312 311 311 311 312 313 313 314 314 314 315 315 314 313 313 312 312 313 312 311 312 312 312 312 313 313 314 314 316 316 317 320 321 317 313 311 308 306 305 303 303 305 306 307 309 310 310 311 311 312 312 313 314 315 316 316 316 316 316 316 317 317 318 317 316 316 316 316 316 315 314 314 314
315 316 315 315 318 319 313 310 311 313 315 316 314 312 311 311 311 312 312 313 314 314 315 315 315 314 313 312 311 311 312 312 311 311 311 312 313 313 313 312 312 313 314 315 318 323 324 318 312 309 308 306 305 304 305 305 307 307 309 310 311 312 312 313 313 314 314 315 316 315 315 316 316 316 316 316 315 314 314 315 314 313 313 313 313 313
315 316 314 315 318 318 312 310 312 314 315 316 314 312 312 311 312 312 312 312 313 313 313 314 313 313 314 313 311 310 310 311 311 312 312 312 313 314 312 310 310 312 313 313 315 321 322 315 309 309 308 306 305 305 305 305 306 307 308 310 311 312 312 312 312 313 314 315 315 314 314 315 315 315 314 314 313 312 312 313 312 312 312 313 313 312
314 314 314 316 317 314 310 311 314 315 316 315 314 313 311 311 311 312 313 312 312 312 313 313 312 313 314 313 311 310 311 310 309 311 311 310 312 315 313 312 312 312 312 314 318 323 322 314 308 307 306 306 306 304 304 304 305 306 307 309 311 311 311 311 311 312 313 314 314 313 314 314 313 313 313 312 311 309 309 309 310 309 310 311 312 312
313 313 314 315 315 312 310 312 316 316 315 314 314 313 311 311 311 312 313 313 312 312 312 312 312 311 312 313 311 310 311 311 310 310 311 311 312 314 313 314 314 313 313 316 322 324 321 312 307 307 307 305 305 304 303 304 304 305 306 308 310 311 310 310 310 310 311 313 313 313 313 312 311 310 310 310 309 308 307 307 308 308 309 310 310 310
312 313 313 313 313 313 313 314 316 317 315 313 312 312 312 312 311 312 313 313 312 311 311 311 311 311 312 312 311 310 310 311 311 311 310 310 312 313 311 311 313 314 313 313 313 312 309 306 305 306 306 304 304 304 303 302 303 305 306 307 308 309 308 308 308 309 310 311 312 313 312 311 310 309 308 307 307 306 306 306 307 307 308 309 308 307
312 313 314 314 313 313 314 315 315 317 317 315 313 312 313 313 312 312 313 314 313 312 311 311 311 311 311 311 311 310 309 309 310 311 311 311 313 314 311 308 309 310 309 308 305 304 303 303 304 304 304 303 303 303 302 302 303 304 305 305 306 306 306 306 306 307 308 309 310 311 311 311 309 308 308 306 306 305 305 305 306 306 306 307 307 305
313 313 313 315 313 312 314 316 316 317 318 317 316 314 314 315 314 313 313 313 313 312 312 311 311 311 311 312 310 309 309 310 311 311 311 312 313 314 311 308 307 306 305 304 304 302 303 303 303 302 302 302 302 301 301 301 302 303 304 304 304 304 304 305 306 306 306 307 308 308 308 309 309 309 309 308 306 306 306 305 305 305 305 305 305 304
314 314 314 314 313 313 315 316 316 316 317 317 316 313 311 313 313 313 314 314 313 313 313 312 312 312 312 312 310 308 309 311 312 311 312 312 312 312 310 309 308 307 305 303 302 302 303 303 302 301 300 301 301 301 300 300 301 302 303 303 303 303 304 305 305 305 305 306 307 306 306 307 308 308 309 309 307 306 305 305 304 304 303 302 302 302
313 313 313 313 313 313 315 317 317 316 316 315 313 310 311 312 313 314 315 315 315 315 313 312 312 312 312 312 310 309 310 311 311 312 312 311 311 312 310 308 307 306 304 302 301 302 302 302 301 301 302 302 301 300 299 299 300 301 302 302 301 302 304 304 304 304 305 305 306 306 306 306 306 307 307 307 306 304 303 303 304 303 302 300 299 299
313 313 313 314 313 313 315 316 316 317 316 313 309 309 311 313 314 314 314 316 318 316 312 312 312 312 312 312 311 310 310 310 311 311 311 310 311 311 310 308 306 305 303 300 300 300 300 300 301 301 301 301 300 300 299 298 299 300 300 301 301 302 303 303 303 303 304 304 305 306 306 305 305 306 305 304 304 302 300 300 301 302 300 299 298 297
314 314 314 314 314 314 315 315 316 318 316 311 309 310 312 313 314 313 313 316 318 315 312 312 312 312 312 311 311 311 310 310 310 310 311 313 312 310 309 308 307 306 303 299 298 298 299 299 299 299 300 299 299 299 298 297 298 299 299 300 300 301 302 302 303 303 303 303 304 304 305 305 305 304 303 302 301 301 300 298 298 297 296 296 295 293
314 314 314 314 314 314 314 315 316 315 311 309 310 310 311 313 314 314 313 314 314 312 311 311 312 311 311 311 311 310 310 309 309 308 309 311 312 311 310 308 306 306 303 299 297 296 297 298 298 296 297 297 297 297 297 298 297 297 297 299 299 300 300 301 302 302 302 302 302 302 302 303 302 301 300 300 299 298 297 295 294 293 293 293 293 290
313 313 315 314 313 314 314 314 313 311 308 308 311 312 312 313 313 315 315 314 314 312 309 310 311 309 308 309 310 309 309 309 308 308 307 307 308 310 310 307 303 302 300 297 295 295 296 297 297 295 294 295 295 295 296 297 297 296 296 297 297 298 299 300 300 300 300 300 300 300 300 299 298 298 298 298 297 295 293 291 291 291 290 290 290 288
313 313 315 315 314 313 313 313 313 310 308 309 312 314 313 311 311 312 316 316 315 312 308 310 314 310 306 308 309 308 308 308 307 307 306 306 307 309 310 308 303 298 297 295 293 293 295 296 295 294 293 292 293 294 295 296 297 296 296 295 295 296 298 298 299 299 299 298 297 297 297 296 295 294 295 294 294 294 293 291 290 289 289 288 288 287
313 312 313 314 314 313 314 314 311 309 308 308 310 311 312 311 310 310 314 317 317 313 307 308 312 308 305 306 308 308 308 307 306 306 305 305 308 308 309 311 307 299 295 295 293 292 293 294 293 292 292 291 291 292 294 294 295 296 296 295 295 296 296 297 297 297 297 296 295 294 294 294 292 291 291 291 291 291 291 290 290 290 289 287 286 286
312 311 311 313 314 313 314 313 310 308 308 308 308 309 310 310 309 308 311 316 317 312 306 305 307 307 305 306 306 307 307 306 305 306 305 304 305 306 306 307 305 299 295 293 292 292 293 293 293 292 291 291 290 291 292 293 294 295 295 296 296 296 295 295 295 295 295 294 293 292 292 292 291 290 289 289 289 290 290 290 290 291 291 290 288 286
311 311 311 312 312 312 312 311 309 308 308 308 308 308 309 310 309 309 311 315 317 313 306 303 304 304 304 306 305 304 307 308 305 304 304 303 303 303 303 302 299 296 293 291 290 292 293 293 292 292 291 291 290 290 291 292 293 294 294 295 295 295 295 294 293 292 292 291 291 290 290 290 289 289 289 289 288 288 289 290 290 290 291 291 290 288
310 311 310 311 313 313 312 311 309 310 311 308 306 307 308 309 309 309 310 310 311 309 306 305 304 301 300 303 303 303 306 308 304 303 303 302 301 302 302 300 297 293 291 290 290 290 292 292 292 291 291 290 289 290 291 291 292 293 293 293 294 294 294 293 291 290 289 289 288 289 289 289 288 288 288 288 287 287 287 288 288 288 288 288 288 287
310 311 309 310 313 312 312 311 311 311 312 310 306 305 307 307 308 308 307 307 307 306 304 305 310 310 306 302 301 302 305 305 303 302 303 301 300 299 298 297 297 295 290 288 289 289 289 290 291 290 289 289 289 290 291 292 292 292 292 292 293 293 293 293 291 289 288 288 288 288 288 288 287 287 287 286 286 286 285 285 285 285 285 285 285 285
Wind_Speed
6 7 9 10 11 14 15 15 11 8 13 14 10 9 7 7 7 4 2 2 1 5 8 10 12 14 16 15 17 14 6 7 11 10 9 8 8 7 8 8 9 11 9 5 8 13 15 18 19 19 20 20 21 22 23 25 28 28 27 26 25 24 25 27 27 26 26 26 25 23 22 24 24 23 23 23 24 25 27 28 26 23 22 21 23 25
5 9 11 12 14 16 16 16 12 8 9 10 7 7 6 6 6 3 2 2 3 4 8 8 9 14 16 15 14 13 9 10 12 12 12 12 10 8 8 9 9 9 7 4 8 13 14 17 19 20 21 23 24 24 25 28 29 30 29 28 27 24 25 29 31 29 28 30 29 26 26 25 23 23 25 26 25 25 26 28 28 27 25 23 22 24
7 10 11 12 12 13 14 14 13 11 9 8 6 6 6 6 5 5 4 3 3 3 7 7 8 13 17 16 13 13 14 13 12 13 13 13 11 9 8 9 9 8 7 7 10 12 14 16 18 20 21 24 26 26 27 29 29 28 29 29 28 26 26 27 29 30 30 31 29 25 23 22 21 23 25 25 25 25 28 30 30 30 29 27 25 25
9 9 13 14 12 15 16 14 16 13 9 8 7 7 7 5 6 6 3 4 4 3 6 8 8 12 15 15 14 15 14 13 12 12 13 12 11 11 10 8 8 9 9 9 10 10 12 15 17 21 23 24 25 26 27 28 27 27 28 29 30 29 28 26 27 30 29 28 26 23 21 20 20 21 23 24 24 26 28 29 31 33 31 29 28 27
8 8 16 17 15 18 16 14 16 11 8 9 9 9 7 7 9 6 1 1 3 3 2 7 10 10 12 14 15 13 12 12 11 11 12 11 10 11 10 9 9 11 11 10 10 10 11 14 18 22 23 22 24 26 28 29 30 31 31 32 32 30 29 28 28 29 26 24 24 24 23 23 22 21 22 24 25 26 27 28 30 32 31 29 29 27
7 11 18 18 17 18 15 13 16 13 8 9 11 11 9 9 9 4 2 1 5 5 2 2 8 6 5 9 11 9 7 10 10 11 12 12 11 11 11 11 11 11 11 11 12 10 10 14 17 18 21 23 26 32 34 34 35 37 36 35 33 31 31 31 31 29 24 24 25 26 26 26 27 26 26 27 27 25 26 27 27 29 30 29 28 27
5 13 17 18 18 19 16 13 15 15 8 7 9 11 12 9 7 6 4 3 5 4 1 2 7 6 3 8 9 7 8 9 9 10 13 13 11 11 10 11 10 11 11 10 12 11 11 13 15 17 23 28 33 38 37 36 38 39 37 35 33 34 34 34 35 31 26 26 26 26 28 28 28 29 27 27 27 24 23 24 24 27 29 28 27 26
8 16 17 18 18 15 14 11 13 15 10 4 7 12 12 10 9 8 7 6 3 3 2 4 4 8 9 9 9 10 12 12 11 13 14 13 12 11 11 11 12 12 11 9 11 12 12 14 16 19 25 32 37 36 32 35 41 40 37 35 33 34 35 35 36 33 28 28 28 26 28 29 28 28 26 25 25 24 23 24 24 25 28 28 27 27
9 18 18 18 15 11 13 12 14 17 10 1 6 11 9 8 7 5 5 4 1 3 6 5 4 7 9 3 6 10 13 14 16 18 17 14 13 13 13 13 13 13 12 11 12 11 12 14 18 21 23 29 35 34 33 38 40 39 37 35 31 33 36 37 38 36 32 29 28 27 27 28 28 27 25 23 23 23 23 24 25 24 27 29 28 27
5 12 16 17 13 12 12 9 15 19 8 2 7 9 7 4 4 2 2 2 1 4 10 6 7 6 10 4 6 6 8 13 15 15 16 15 14 13 13 13 14 12 11 11 11 11 12 13 17 20 22 26 33 34 36 37 36 37 37 35 34 35 37 37 38 39 36 30 27 28 28 28 27 25 24 23 24 24 24 24 26 26 26 28 29 27
3 3 8 10 8 7 6 5 7 11 7 9 9 9 8 4 3 2 0 1 3 7 7 6 10 6 9 4 7 7 7 11 12 10 11 14 14 12 11 12 12 12 10 9 9 10 11 12 15 18 20 25 29 30 31 33 35 36 36 35 36 36 35 33 35 37 35 31 29 30 30 29 27 25 24 25 26 25 26 25 25 27 26 27 29 28
6 7 6 3 1 5 10 6 3 4 8 9 8 8 7 2 2 1 1 2 5 7 1 4 8 9 10 4 5 6 5 6 9 10 10 13 14 12 11 11 10 10 9 8 7 7 8 9 12 15 18 20 22 24 28 31 34 34 34 33 32 33 32 30 32 33 33 31 31 32 31 29 28 26 25 26 27 27 27 26 25 26 26 27 29 29
7 6 3 2 0 6 13 9 3 3 5 5 6 9 7 3 3 3 3 3 7 5 2 1 2 8 13 8 3 5 8 9 9 8 10 12 12 12 11 9 6 4 5 6 6 6 6 6 8 11 14 15 16 22 27 29 30 32 33 31 29 31 32 29 30 32 31 31 32 32 31 30 29 28 27 27 26 26 26 25 25 26 26 27 29 29
4 2 1 4 3 8 13 12 7 5 6 7 8 9 7 5 4 6 5 4 5 3 2 1 2 5 12 8 5 10 12 11 6 6 9 9 9 10 8 4 2 2 5 5 5 5 5 5 6 8 10 12 14 20 25 27 29 30 31 30 29 29 30 29 30 30 30 32 32 31 29 29 29 29 28 27 25 25 24 22 23 25 26 27 29 30
8 1 7 12 6 9 14 11 9 8 6 8 7 6 6 6 5 6 6 5 3 1 2 3 2 7 7 2 2 8 8 7 5 5 7 8 8 7 6 5 5 5 5 4 4 6 6 6 6 7 9 13 15 18 23 27 28 29 30 31 30 28 27 29 31 30 29 31 30 29 29 28 28 28 27 26 24 23 22 21 21 22 24 24 26 29
11 3 6 8 3 11 17 10 10 12 7 6 3 3 6 5 3 1 1 1 1 1 3 5 4 6 4 6 9 9 7 8 9 7 7 9 7 4 5 7 6 6 6 5 5 7 8 7 7 9 11 14 16 17 20 25 28 30 31 31 30 28 26 28 30 29 27 28 27 28 28 27 27 26 25 25 23 21 21 20 19 21 22 22 22 24
11 3 3 4 1 9 13 10 14 12 7 5 4 5 4 2 3 2 0 2 1 4 4 5 6 6 4 9 12 13 13 12 10 9 9 9 6 4 7 8 6 7 6 6 6 7 8 7 8 13 16 16 16 17 20 23 26 29 30 29 27 25 24 25 29 28 25 25 26 26 27 27 27 25 24 23 22 21 21 20 19 20 20 20 20 20
8 3 1 4 6 5 2 6 11 5 3 6 7 7 5 4 1 2 3 2 3 7 4 4 9 7 3 5 5 9 14 15 13 11 8 6 5 5 7 8 7 7 6 6 8 8 8 8 8 13 17 17 16 16 18 19 22 25 26 27 26 25 25 25 27 28 25 24 25 25 26 27 27 25 24 23 22 22 22 20 20 19 19 20 22 23
7 5 2 1 5 3 2 5 9 3 1 3 6 9 7 3 5 6 5 4 5 6 3 4 7 7 8 8 3 7 8 10 12 12 11 9 8 7 8 7 7 7 5 6 7 7 7 8 7 9 13 15 14 14 14 15 18 21 24 26 25 25 27 26 28 30 26 22 23 24 24 25 25 25 23 23 23 23 22 23 23 22 22 25 27 28
7 5 3 1 1 3 1 5 9 6 2 1 4 9 4 3 6 6 4 2 4 6 5 3 3 5 8 7 7 10 9 7 7 8 10 12 10 8 6 6 5 5 4 4 5 5 5 5 4 6 9 10 10 11 11 12 14 17 20 23 24 25 25 26 28 27 22 19 21 23 23 23 24 24 23 24 24 23 23 25 27 27 27 28 28 28
6 2 5 5 1 3 5 6 10 12 8 5 8 11 7 3 2 2 3 2 2 5 5 4 5 6 3 4 8 13 13 12 10 8 9 9 8 5 3 4 4 3 3 4 5 5 5 4 3 4 5 6 6 7 8 10 11 13 16 19 21 22 23 24 25 23 20 19 20 21 22 22 23 23 24 25 25 24 25 27 28 29 29 28 27 27
5 3 7 8 5 7 7 4 3 6 9 8 8 11 11 8 5 4 7 5 2 3 3 2 5 6 2 4 7 10 11 13 11 9 10 7 3 2 3 3 3 3 4 5 5 4 4 3 4 5 5 5 5 6 6 8 10 12 15 16 18 20 21 23 23 21 19 19 20 20 21 21 23 25 26 26 26 26 27 27 27 27 27 27 27 27
2 4 7 6 5 4 1 1 2 2 3 3 4 6 9 8 7 8 8 5 4 2 1 1 5 5 2 4 6 7 6 5 3 4 6 5 1 1 5 5 3 4 5 5 5 3 3 3 5 6 7 7 7 7 6 7 9 11 13 15 16 17 19 21 21 19 18 19 20 21 21 22 24 26 26 27 28 28 27 27 27 26 26 26 26 26
2 5 6 5 3 2 4 2 2 2 1 4 7 7 9 12 9 4 1 3 6 5 3 3 6 5 1 2 4 2 1 2 1 2 4 4 2 3 6 6 4 4 4 4 4 3 2 4 5 6 8 8 8 8 7 7 7 8 9 11 13 14 15 16 17 17 17 18 20 22 22 23 25 25 25 26 27 27 26 26 26 26 25 25 24 25
6 6 8 7 5 2 0 1 2 3 6 9 9 6 8 12 7 3 1 2 4 7 8 6 8 7 1 1 2 2 2 4 4 4 5 4 4 4 5 5 4 3 3 3 3 4 4 5 6 7 8 8 8 8 8 8 7 7 7 8 10 12 13 14 14 15 16 16 18 21 22 22 23 23 24 25 25 25 25 25 25 25 24 24 24 24
7 7 10 11 10 10 10 9 9 8 6 4 4 6 9 13 11 6 4 4 5 8 9 8 10 8 1 2 4 3 1 6 5 4 4 4 4 4 4 4 3 3 4 3 3 4 5 5 6 7 8 8 8 8 7 8 8 7 7 7 10 12 13 13 13 13 14 15 18 21 21 21 22 23 23 24 24 24 24 24 24 24 23 23 24 24
4 6 11 10 11 13 11 7 7 9 9 9 12 13 12 15 15 9 5 7 7 5 6 11 15 13 6 6 7 5 4 6 5 3 2 3 3 4 4 4 4 4 4 3 2 4 5 6 7 8 9 9 7 8 8 8 8 7 7 8 9 11 13 14 14 14 15 16 18 20 21 21 22 22 22 23 23 22 22 23 23 23 23 24 25 25
4 8 14 15 17 13 5 4 9 13 14 15 16 15 13 14 16 12 10 12 8 4 6 16 21 20 13 8 8 7 6 6 5 4 3 3 2 2 2 4 6 5 4 3 3 5 6 7 8 9 10 9 8 9 10 9 9 9 9 9 10 11 14 15 16 16 15 16 18 19 20 21 21 22 22 22 22 22 22 22 23 23 24 24 24 25
5 11 15 16 18 11 4 6 12 14 14 16 17 17 17 16 17 17 16 14 10 7 13 22 23 20 15 10 12 9 7 6 5 2 2 2 3 3 3 5 7 5 4 4 5 6 7 7 8 9 11 11 10 10 11 11 11 11 11 11 11 13 15 16 17 17 17 17 19 20 20 21 22 22 22 22 22 23 23 23 23 23 23 23 24 25
5 10 12 13 15 10 4 7 13 15 15 17 19 20 19 18 19 19 16 17 17 15 19 24 22 17 16 15 16 12 7 4 2 1 1 4 6 6 5 7 8 5 4 5 5 6 8 8 8 8 10 12 12 12 13 14 15 15 15 14 14 15 16 17 18 18 19 19 20 20 20 21 21 22 22 22 23 23 23 25 25 24 24 25 26 26
6 9 10 11 11 9 5 6 12 16 17 19 19 18 17 15 17 18 19 21 21 18 21 23 20 17 17 14 10 8 6 3 4 8 10 11 12 10 9 11 10 7 5 5 5 6 7 7 8 8 10 13 15 16 16 17 18 19 19 17 17 18 18 18 19 19 20 20 20 20 20 21 21 22 23 22 22 23 24 25 25 25 26 27 27 27
8 7 7 7 8 9 8 7 7 10 13 15 16 17 18 18 19 19 20 20 16 15 20 21 18 17 11 4 6 5 6 7 10 12 11 13 16 14 13 13 10 7 7 6 5 6 7 8 9 10 11 13 17 19 20 20 21 22 22 21 20 20 20 20 20 21 21 21 20 21 22 22 22 23 23 23 23 24 26 25 25 26 28 28 28 29
10 8 6 9 11 10 8 7 6 7 8 9 14 21 25 24 21 17 16 18 18 17 18 17 17 15 4 8 7 8 9 11 12 10 10 12 13 11 9 9 9 8 7 6 6 7 7 8 9 10 12 15 19 22 23 23 24 23 23 22 21 21 21 21 21 22 22 22 21 22 23 23 23 24 24 23 24 26 26 26 27 28 29 30 31 32
12 11 7 8 9 7 6 8 6 8 11 12 16 23 25 22 21 17 16 21 21 18 16 14 16 14 4 6 11 11 10 10 10 9 11 11 9 8 7 9 9 8 7 7 7 8 8 8 8 11 15 21 24 22 21 23 24 22 22 22 22 22 22 23 22 22 23 23 22 23 24 24 24 25 24 23 25 27 28 28 29 31 32 33 33 33
12 10 5 5 4 2 6 8 7 12 14 9 7 13 16 16 21 21 19 22 21 20 20 20 21 18 10 8 11 11 10 10 9 11 13 11 8 6 7 8 8 8 8 8 8 9 9 7 7 10 16 23 25 20 20 24 25 22 23 24 24 24 24 23 24 23 24 24 24 25 25 25 26 26 25 25 26 28 29 30 31 32 33 34 34 33
14 11 6 3 3 2 5 9 9 9 7 2 2 8 13 14 17 18 18 22 23 22 20 20 23 22 15 9 7 7 7 6 8 14 15 11 7 6 7 7 7 8 9 9 10 10 10 12 15 18 20 22 23 22 23 26 26 24 25 26 26 26 25 24 25 25 25 26 26 27 26 27 27 27 27 28 28 29 30 30 31 31 31 31 31 31
15 14 8 5 4 4 8 11 7 2 1 3 6 11 15 15 17 18 17 19 19 18 17 19 24 24 19 13 5 4 1 1 5 13 13 10 8 8 10 10 10 11 12 13 14 12 12 16 20 21 18 18 22 25 25 26 27 26 27 27 26 26 26 25 26 27 27 28 29 29 28 28 29 28 28 29 30 31 31 31 32 31 31 31 31 30
9 12 12 9 5 4 7 10 7 4 8 14 18 17 13 11 12 14 12 13 14 17 20 22 25 22 19 14 6 6 3 2 9 13 9 12 11 11 12 14 13 13 14 15 13 11 11 15 17 17 17 17 22 25 25 26 28 28 28 28 27 27 27 27 28 28 29 29 30 31 30 30 30 30 30 31 31 32 32 32 32 31 31 32 31 30
5 5 7 7 4 4 9 10 9 10 14 15 14 13 9 8 11 10 4 12 20 23 23 23 23 19 16 12 7 7 6 8 14 11 8 14 14 14 15 17 16 16 17 17 15 15 16 16 15 15 16 17 21 24 24 27 30 29 29 28 27 27 27 29 30 29 29 29 30 30 31 31 31 31 31 32 32 33 32 32 31 31 30 30 30 30
6 4 5 5 4 6 10 9 5 7 12 9 8 12 12 15 17 12 5 16 22 20 19 20 20 17 16 11 8 9 11 13 15 9 11 16 17 17 18 20 18 16 15 15 17 17 18 18 17 18 19 22 24 24 24 27 29 29 28 27 26 27 30 31 30 28 27 27 28 28 29 30 31 32 32 33 33 32 32 31 31 30 30 29 28 28
8 7 7 8 8 8 10 9 5 7 9 5 9 15 17 18 14 11 14 14 9 10 15 18 18 17 16 12 9 8 14 19 22 14 12 16 17 16 17 15 12 11 11 15 18 18 17 20 21 21 22 23 22 22 24 28 28 26 25 24 25 29 31 29 26 26 27 27 27 28 28 29 30 31 31 32 32 31 31 30 30 30 30 30 29 28
9 7 7 8 9 8 8 6 4 7 7 8 13 17 20 16 12 14 11 2 6 11 15 17 17 19 19 17 15 14 18 25 25 12 7 11 14 14 12 8 6 7 8 10 14 17 18 19 18 18 18 18 19 22 26 28 27 24 23 24 28 31 29 25 25 27 28 28 29 30 30 30 30 29 29 30 31 30 30 29 29 30 31 31 30 30
11 9 8 9 9 7 6 6 6 10 9 17 17 15 17 14 9 5 3 4 4 8 13 14 15 16 16 16 17 17 20 23 19 8 4 6 8 7 7 6 7 7 6 7 11 17 19 18 17 16 16 17 19 22 26 28 26 23 23 26 29 28 25 25 26 27 28 29 30 30 31 31 30 30 30 30 30 30 29 28 29 30 32 32 32 32
12 10 8 8 9 6 6 10 11 9 9 21 19 13 14 9 2 4 6 3 1 5 7 9 11 10 10 12 14 16 18 19 16 10 7 6 4 2 3 5 5 5 6 7 11 18 20 18 17 16 15 18 21 23 27 29 25 23 25 26 25 24 25 26 26 26 28 29 29 30 30 30 30 30 30 30 30 30 29 29 30 31 32 32 33 34
13 14 9 9 12 11 10 12 9 2 8 19 17 14 15 11 2 2 6 5 3 5 5 6 8 8 9 11 10 10 12 14 13 12 11 8 6 3 2 3 3 4 6 7 11 18 19 17 19 19 16 17 20 23 26 28 25 23 25 23 21 23 25 25 25 26 27 28 28 28 29 28 28 29 29 30 30 30 29 29 30 32 34 34 34 36
10 13 7 5 10 12 9 7 4 2 7 16 11 5 11 14 6 2 3 3 3 4 3 4 7 8 9 10 8 8 10 12 13 12 9 7 5 4 3 2 3 5 7 8 12 18 18 16 18 19 16 15 18 22 25 26 25 23 22 21 21 23 24 24 25 25 26 26 26 26 27 26 26 26 27 28 29 29 29 28 29 31 34 35 36 37
5 10 8 4 8 11 11 11 10 8 10 14 9 2 5 12 8 4 4 4 2 3 4 3 3 6 8 9 10 11 12 11 11 10 7 5 5 5 5 5 5 6 7 9 14 19 19 17 16 16 16 16 18 20 22 23 23 20 19 20 21 22 23 24 25 24 24 24 24 24 25 26 24 23 24 25 25 25 26 27 29 32 36 38 38 37
7 11 11 7 9 13 15 12 10 8 7 11 10 5 5 8 7 4 4 3 3 4 5 4 3 5 7 9 12 12 9 6 8 9 7 5 5 5 5 5 6 6 7 10 15 19 19 17 16 16 16 16 17 19 20 21 22 20 18 19 20 21 22 24 24 24 24 23 22 23 24 23 22 23 24 24 24 25 26 28 31 35 39 42 42 41
6 9 10 9 11 13 11 5 9 7 8 12 13 9 6 7 8 8 6 4 4 4 5 5 3 3 5 8 10 9 8 6 7 8 7 5 5 6 6 5 5 6 8 12 16 19 19 17 16 17 16 15 17 18 18 19 20 19 18 18 19 20 22 23 22 22 22 21 21 21 22 21 20 22 24 24 24 26 28 31 33 36 39 41 42 44
7 9 8 7 9 12 15 13 13 10 11 12 11 10 8 8 11 12 9 6 4 4 6 7 3 1 2 4 4 7 9 8 6 6 5 4 4 5 5 6 6 5 8 13 15 15 15 14 15 17 17 15 16 17 17 18 19 18 17 17 18 20 22 22 22 20 19 20 20 21 23 23 23 24 25 25 26 25 25 27 30 33 35 36 37 38
10 13 13 12 14 18 23 20 16 12 11 8 11 12 12 10 11 14 13 10 8 6 7 8 6 3 4 4 2 5 7 5 3 5 4 2 3 4 5 8 8 7 9 13 14 13 13 14 15 17 16 15 16 16 17 18 19 18 18 17 18 20 21 22 22 21 20 21 22 23 24 24 24 25 25 25 27 26 24 24 25 28 30 31 32 33
Wind_Direction
177 174 194 202 188 186 187 193 202 187 188 194 194 206 217 221 225 224 186 113 142 252 249 243 249 255 255 251 251 250 206 206 243 245 240 237 230 224 223 227 224 228 237 219 216 226 220 216 214 210 211 211 212 213 214 216 216 214 214 213 214 219 218 213 212 213 213 214 217 219 221 224 228 230 232 233 233 233 234 234 231 230 231 231 233 236
190 202 202 198 188 184 187 194 196 185 190 196 194 206 216 224 237 231 182 133 131 239 258 253 260 262 260 257 252 253 245 235 239 243 245 240 234 226 225 232 231 233 239 217 226 228 218 215 213 211 211 210 211 212 212 214 215 214 213 214 215 216 215 213 212 213 214 216 217 219 221 224 227 229 230 233 235 234 236 237 235 233 233 232 233 235
201 218 199 183 180 180 188 196 197 190 188 195 193 206 219 209 231 249 220 194 161 227 265 271 271 268 265 263 253 247 250 250 241 238 247 249 245 237 228 236 238 243 248 232 232 225 212 210 209 210 213 213 214 213 213 215 214 212 213 215 216 215 215 214 214 214 215 218 219 220 222 223 226 229 230 233 237 239 241 242 241 238 235 234 234 235
200 213 183 169 172 181 189 195 196 198 196 200 192 199 214 183 201 235 203 163 171 225 284 292 283 273 269 265 254 243 238 247 247 239 244 248 250 250 240 237 239 244 247 235 230 223 208 203 205 211 214 214 213 213 214 214 211 211 212 214 215 214 214 213 214 215 216 219 220 221 223 224 228 231 231 234 239 242 244 246 245 243 239 236 235 235
197 175 165 169 181 187 189 189 192 198 200 205 206 205 207 191 207 227 76 112 211 210 255 290 286 273 258 252 253 245 221 224 240 240 243 241 238 247 249 244 238 238 244 241 236 224 200 200 207 210 212 211 211 214 215 212 211 213 213 214 214 213 213 211 212 215 214 216 218 220 224 227 229 232 231 231 234 238 240 242 245 246 244 241 240 239
194 153 160 174 186 190 189 189 192 194 196 207 213 217 217 205 208 208 68 337 264 240 165 273 279 268 239 245 255 261 230 218 225 225 237 241 229 231 238 239 234 234 239 241 243 234 204 203 209 209 210 210 213 220 221 217 217 218 218 216 214 213 213 212 212 212 210 209 212 215 217 218 221 225 225 224 226 230 233 237 242 244 243 242 243 243
175 158 167 179 187 191 194 197 194 190 197 213 198 201 213 207 195 184 174 210 257 270 115 169 261 272 279 263 259 269 268 252 238 227 231 235 229 222 225 233 233 233 235 234 239 238 220 209 203 206 213 214 220 226 224 221 223 223 221 219 216 216 216 216 215 213 209 208 209 213 215 215 217 220 222 223 225 228 230 233 236 238 239 240 241 242
157 163 175 185 186 189 198 201 189 187 200 214 162 169 190 195 189 188 192 216 255 321 266 184 242 280 276 263 248 246 259 260 250 243 237 229 227 224 222 228 230 232 231 227 231 231 223 215 207 209 215 218 224 226 223 224 227 225 223 222 219 220 221 221 221 215 209 209 209 212 217 220 221 222 224 224 225 228 229 231 232 235 237 237 238 239
151 170 180 182 181 192 204 195 173 183 202 214 131 148 167 173 170 172 188 217 348 341 262 199 150 268 271 234 208 225 243 252 246 242 241 233 227 225 224 226 227 231 231 227 229 228 220 215 214 216 219 223 227 226 224 227 228 226 225 223 221 223 225 225 225 218 211 211 212 212 216 220 222 224 224 223 223 226 228 229 230 232 234 234 235 237
152 178 181 177 186 201 199 176 170 186 201 102 124 117 104 104 101 110 206 228 335 275 260 213 157 252 278 226 187 209 231 245 247 242 239 237 229 221 220 223 224 227 231 230 229 231 225 218 222 226 226 230 231 229 228 227 227 226 225 225 224 226 227 226 226 223 216 213 213 213 215 216 218 218 218 219 221 224 224 225 226 227 230 232 233 236
106 139 180 183 200 193 143 99 164 185 155 122 132 112 93 78 66 69 320 39 268 261 253 193 166 217 282 246 184 202 212 226 243 247 239 235 231 225 219 219 221 221 226 230 229 234 232 225 229 233 230 232 233 231 229 227 225 224 223 223 224 226 226 224 224 223 216 213 214 216 215 214 214 212 211 215 218 219 220 220 222 223 226 229 230 232
141 147 177 191 215 138 116 93 61 129 143 142 143 132 119 102 87 141 124 123 237 249 210 162 168 195 245 243 171 211 225 217 234 244 243 237 233 232 226 222 220 219 223 224 226 233 229 222 225 228 230 232 231 228 228 227 225 222 221 220 220 222 222 220 220 219 214 213 217 219 217 215 214 210 208 212 214 215 216 218 218 219 224 227 228 229
154 164 163 64 249 165 140 135 91 107 172 168 147 149 145 137 157 196 193 191 236 236 108 85 156 203 242 254 184 217 245 239 226 233 247 244 238 237 235 229 215 215 234 230 231 236 223 217 216 219 228 230 226 226 228 227 225 222 220 217 215 218 218 215 216 215 213 214 217 219 218 216 215 213 211 212 214 214 215 217 216 216 221 225 224 225
135 343 255 146 193 195 167 159 160 171 188 175 159 165 162 144 167 200 193 215 245 218 138 126 119 242 261 266 212 219 240 249 236 232 251 255 253 255 259 267 284 247 238 229 234 243 231 225 219 218 227 226 223 225 226 226 225 222 221 217 215 217 216 214 213 213 214 216 218 219 218 216 216 216 213 212 214 214 213 215 215 216 220 222 221 222
158 201 202 181 174 186 185 180 156 140 162 178 168 174 179 168 185 202 190 207 221 136 133 150 169 236 247 335 263 241 258 278 272 251 257 259 253 262 282 285 274 260 247 227 228 243 242 235 230 232 233 230 228 224 221 223 222 220 220 218 216 215 213 213 212 212 214 218 219 219 219 218 217 217 216 215 215 214 214 214 214 217 219 220 221 223
180 207 186 177 167 176 181 179 148 133 153 189 160 177 204 187 152 136 213 226 119 68 180 183 231 246 251 322 296 271 271 263 254 245 247 251 235 229 268 264 252 251 247 234 229 241 242 229 225 231 234 236 232 224 220 221 219 218 219 219 218 216 213 213 212 211 214 218 219 220 220 219 217 217 217 215 215 216 216 215 214 217 219 220 222 224
192 201 135 133 113 185 180 169 164 158 156 169 176 191 196 80 87 125 179 57 70 255 219 189 246 268 296 287 261 245 250 245 238 232 231 244 234 211 247 251 243 241 233 228 230 238 240 227 222 228 230 233 231 224 222 221 220 219 219 219 218 216 214 214 212 211 213 218 220 221 222 221 220 218 218 216 215 217 217 217 216 218 219 219 220 221
183 147 49 157 161 195 221 149 169 187 135 152 184 173 121 50 29 210 211 150 184 239 237 193 238 257 263 267 231 212 237 242 240 239 231 236 231 226 243 245 244 244 231 227 230 234 238 229 224 227 228 228 226 224 223 223 222 220 219 219 218 217 216 215 214 212 212 215 218 220 221 222 221 220 221 220 217 218 218 217 216 216 216 217 218 220
165 129 34 203 159 157 2 145 172 247 286 173 178 155 138 177 199 196 203 187 191 226 257 212 235 252 227 233 209 166 207 236 240 243 246 245 235 230 241 243 247 249 242 238 234 233 237 231 224 226 229 228 222 219 218 218 220 217 217 218 216 218 219 217 217 215 213 214 216 218 220 221 221 220 220 220 218 218 217 215 215 214 216 221 225 228
162 148 130 156 105 122 155 182 183 196 222 343 169 165 175 235 200 190 185 181 189 209 245 230 221 242 215 209 208 194 203 224 221 228 242 248 243 232 232 236 244 248 250 260 260 258 258 251 239 231 233 233 222 215 210 207 210 210 213 215 215 217 219 218 219 216 212 214 215 217 219 219 219 219 218 218 217 216 215 217 219 220 222 227 231 231
154 186 151 138 101 160 185 205 195 185 170 164 180 181 188 191 182 211 192 201 216 207 228 235 241 247 201 160 198 209 221 230 227 231 236 242 251 250 244 246 254 270 282 285 289 290 284 272 238 226 233 236 226 216 207 202 203 203 206 210 213 215 217 218 219 216 213 213 213 214 215 215 216 216 216 216 214 214 217 220 222 224 227 230 231 230
169 180 148 142 171 188 188 205 216 194 178 179 191 189 189 179 157 187 200 196 213 218 211 228 268 266 167 155 202 208 220 229 232 245 248 251 273 301 281 262 263 277 276 277 277 279 280 253 204 202 209 215 220 216 209 206 203 202 203 205 208 211 213 216 215 214 213 213 212 213 213 214 215 216 217 216 215 217 220 222 223 226 229 229 229 228
113 117 124 133 171 178 105 29 348 271 209 220 242 201 189 187 184 201 210 183 169 207 62 66 282 283 129 157 200 199 214 234 236 250 259 270 302 294 277 265 251 254 257 271 274 271 268 240 209 202 200 204 214 214 208 208 207 206 205 204 205 207 209 211 212 211 210 209 211 211 212 214 216 217 217 217 217 219 222 224 224 227 227 226 226 224
86 121 117 99 103 48 21 13 356 347 189 218 237 217 195 198 195 201 236 155 165 188 186 205 251 264 119 149 210 207 261 295 301 220 241 263 253 237 256 257 245 248 254 265 267 261 241 224 216 211 205 205 212 209 202 208 212 209 205 204 205 205 206 207 209 208 206 206 208 209 210 213 214 215 215 215 217 219 220 222 222 223 222 221 222 221
178 153 136 128 135 125 61 216 215 217 205 210 213 195 195 199 176 97 52 156 186 197 193 214 250 256 246 93 255 290 305 265 247 219 224 247 254 244 252 260 257 261 269 271 265 260 237 217 217 219 212 209 211 206 202 209 211 206 204 204 204 203 202 202 203 202 200 200 203 205 208 209 210 211 212 212 215 216 216 218 218 217 216 216 216 216
175 163 164 166 169 175 190 200 193 187 189 209 185 155 183 192 175 165 187 190 207 198 185 208 240 243 145 126 230 231 243 252 235 204 226 244 254 270 278 277 282 288 282 274 259 257 247 228 226 225 221 220 213 207 209 212 211 208 205 203 201 200 200 197 195 194 194 195 197 199 201 203 205 207 208 209 210 211 212 213 212 210 212 214 212 210
150 179 189 192 193 190 193 192 163 150 155 184 195 182 181 189 186 185 193 207 212 184 183 218 233 239 212 165 201 211 200 240 235 176 231 250 233 255 278 289 294 286 274 270 252 249 250 239 231 228 227 227 220 215 217 217 215 212 208 205 201 197 195 192 189 189 192 193 193 195 196 197 200 202 203 204 204 205 207 207 206 206 209 210 208 206
130 192 197 203 211 204 173 135 147 156 174 192 197 186 180 186 188 191 206 213 197 139 220 229 228 239 236 179 185 211 199 226 240 188 206 255 238 231 267 286 279 262 247 247 238 233 237 235 229 224 224 223 219 218 217 217 218 216 215 213 205 193 188 187 186 187 189 189 190 191 192 192 194 196 197 198 199 200 201 201 202 204 205 204 202 203
153 201 198 199 211 205 134 141 155 160 182 191 190 188 186 183 186 197 213 214 188 175 233 236 227 235 242 205 197 213 201 216 241 189 152 307 298 268 265 266 261 250 226 226 232 227 227 230 225 219 218 215 213 212 210 211 212 209 210 212 204 192 187 186 187 186 187 187 187 187 187 187 188 190 192 193 194 194 195 198 198 197 198 197 197 197
177 205 197 194 208 204 165 171 165 164 180 190 191 191 186 182 188 198 210 215 209 210 233 243 240 242 247 227 210 212 213 221 276 322 277 271 255 234 229 241 248 250 239 226 221 220 222 223 219 214 214 212 209 205 204 207 207 204 204 205 199 191 189 189 189 186 185 185 186 186 185 185 185 185 186 187 189 191 192 192 190 190 192 192 192 192
211 202 183 182 203 205 192 195 182 175 181 188 192 189 178 180 193 203 212 216 214 219 234 245 251 254 252 234 203 195 209 230 261 259 260 265 262 255 252 259 268 275 261 238 223 221 222 220 215 208 208 210 207 204 205 206 205 202 202 201 197 192 190 190 189 186 185 184 185 185 184 184 182 181 181 183 187 190 189 186 185 188 190 188 188 188
207 196 157 159 200 210 200 199 190 174 178 189 193 186 180 186 197 204 213 215 206 212 231 239 244 248 243 180 140 157 181 204 228 237 245 256 260 262 264 267 273 271 255 242 230 224 219 216 215 210 206 206 204 204 205 203 202 201 200 199 196 192 189 190 189 188 185 184 186 186 184 182 181 180 181 184 187 187 184 184 186 187 186 184 184 183
193 189 160 167 197 211 193 172 158 148 167 197 198 192 191 195 200 203 214 219 209 205 218 227 231 234 197 115 156 187 185 199 213 213 218 231 239 244 248 250 251 250 245 238 230 226 219 215 213 209 205 205 206 208 206 201 199 200 199 197 195 193 190 190 190 190 186 185 188 187 184 182 182 181 181 184 187 184 182 184 186 185 183 180 178 177
186 189 183 179 197 202 155 138 152 177 197 213 207 198 195 193 192 197 213 219 213 211 224 235 239 240 213 162 198 199 190 204 210 206 214 221 224 228 230 231 236 240 238 233 231 230 222 215 212 212 213 215 215 214 208 201 199 199 198 195 194 194 193 191 191 192 188 186 188 189 185 183 184 183 181 185 188 184 181 184 183 181 180 179 177 177
179 189 183 173 194 185 133 144 183 210 216 228 205 187 192 197 196 202 219 224 215 215 226 236 245 244 228 206 208 203 203 211 211 218 222 216 214 221 222 224 226 229 232 227 224 229 224 208 201 209 217 220 217 212 205 201 199 197 195 194 193 194 195 194 192 192 191 190 189 189 187 186 185 183 182 185 188 184 181 181 180 180 180 180 182 183
176 181 178 168 160 132 154 178 201 220 222 287 42 158 179 202 204 204 226 232 219 213 219 231 243 242 229 214 197 193 215 224 224 234 229 210 201 215 222 228 221 217 224 221 217 222 214 202 203 209 216 217 211 205 202 199 195 193 193 193 193 195 196 196 195 194 194 194 192 190 190 188 187 185 184 183 184 183 182 180 180 182 182 182 183 185
182 178 173 180 180 170 186 195 210 263 195 220 228 191 181 196 198 196 221 236 222 209 213 227 238 238 232 225 185 129 133 306 255 246 224 190 195 216 220 226 221 215 222 224 224 227 216 209 212 214 215 212 205 203 201 196 192 191 192 191 193 195 196 198 199 198 196 196 194 192 192 192 189 187 186 184 182 183 183 182 183 184 184 185 184 185
192 183 174 179 190 179 183 195 207 222 221 222 217 202 188 192 188 187 220 250 235 208 204 219 233 235 231 224 180 114 109 217 251 248 197 167 193 217 222 229 229 224 223 220 217 217 213 213 216 215 211 205 202 203 199 193 190 188 189 190 192 194 196 200 203 202 198 198 197 194 193 193 192 189 189 188 187 186 186 187 188 188 187 188 188 188
155 175 175 172 172 170 185 198 200 208 231 232 205 179 160 140 130 131 181 258 248 223 206 215 229 229 224 215 167 139 168 221 247 244 156 157 193 211 218 226 226 225 224 216 207 206 207 210 211 208 204 199 199 199 195 191 189 186 187 191 192 193 199 204 206 204 200 199 198 196 194 193 193 193 192 192 191 191 191 190 191 191 189 189 190 190
148 160 172 167 173 184 195 206 205 221 240 233 160 149 148 133 120 120 193 246 247 226 201 208 223 225 223 208 163 168 198 222 244 234 152 166 196 206 216 226 226 226 223 213 210 210 205 201 196 192 197 200 199 195 190 188 186 187 190 191 191 197 206 209 208 205 203 202 200 199 198 196 195 195 195 195 194 194 194 194 193 192 190 190 191 191
177 182 183 184 190 192 199 209 223 245 246 205 143 148 142 128 132 178 218 233 222 172 174 197 214 221 219 197 169 190 210 222 238 233 171 175 197 208 219 229 226 221 215 210 212 208 197 195 194 194 199 201 196 190 187 184 184 189 191 188 193 204 210 210 208 205 205 205 204 204 204 202 201 200 198 197 197 195 195 196 196 195 193 191 190 190
175 177 182 189 189 191 205 210 237 260 233 159 150 154 146 148 184 209 214 195 106 142 171 191 202 211 211 201 197 211 220 226 235 232 163 180 207 214 220 220 202 207 209 206 208 201 191 191 194 196 199 197 193 191 187 183 185 189 188 190 201 208 208 206 206 204 203 204 205 206 207 206 206 206 204 202 200 196 195 196 198 198 195 193 191 190
176 172 181 192 185 182 197 190 221 249 204 148 148 164 168 180 203 189 121 52 89 157 175 187 201 210 209 205 207 217 229 237 240 229 160 192 216 223 221 204 193 201 191 179 193 192 187 186 188 193 194 191 192 192 186 184 186 186 189 198 206 207 203 203 204 202 201 202 203 204 205 205 206 206 204 202 201 199 198 197 196 195 193 191 189 187
181 176 179 189 175 162 187 199 214 237 169 144 154 183 192 193 190 121 143 143 144 172 176 192 210 212 202 202 208 214 227 239 243 233 220 214 206 211 215 196 189 190 178 178 187 184 180 179 180 183 185 186 188 190 189 188 185 185 195 204 204 200 199 201 200 199 199 200 201 201 202 202 203 203 202 201 199 197 195 193 190 188 189 189 187 183
188 188 183 184 184 185 199 205 206 213 155 163 176 191 186 182 165 126 154 150 169 190 181 190 204 204 201 206 209 212 224 234 236 231 226 217 200 184 187 190 179 170 166 170 177 177 177 178 175 173 175 183 187 189 192 191 187 189 199 203 198 196 196 195 194 195 196 197 198 199 199 199 199 200 200 199 196 191 187 185 185 186 188 188 186 184
193 189 178 177 194 203 219 211 173 113 182 189 195 198 185 187 185 120 139 155 175 184 176 188 198 194 194 197 198 210 224 226 226 226 220 205 189 174 174 187 175 168 167 166 171 175 174 171 170 169 169 178 186 190 192 193 193 195 199 197 193 194 194 193 192 193 195 196 196 198 198 196 195 197 198 196 194 192 189 187 186 188 189 189 189 188
203 191 194 188 177 194 222 217 189 177 189 192 198 254 209 198 189 158 175 185 157 169 191 205 200 184 183 187 195 210 220 219 219 224 213 186 179 179 183 189 184 181 180 174 171 171 167 162 163 167 170 178 185 189 191 193 196 199 200 196 194 193 193 194 193 192 193 194 194 195 197 195 193 194 195 194 193 194 194 193 192 193 193 192 192 192
192 188 194 190 176 195 219 213 176 167 189 197 198 204 202 196 185 171 189 184 154 181 199 198 180 171 176 188 199 209 216 209 208 217 212 190 178 178 180 189 190 181 176 173 169 168 167 166 168 172 175 178 181 184 187 191 195 198 199 197 194 191 190 191 191 192 192 192 193 196 196 195 195 196 196 196 196 197 198 199 199 200 200 199 198 196
157 174 179 180 192 213 232 197 129 145 209 213 205 202 197 188 183 188 200 190 167 183 196 198 208 199 188 194 194 191 198 207 207 209 207 189 176 175 175 181 180 168 168 171 172 173 175 175 175 174 173 173 176 179 184 188 191 195 196 194 191 188 186 186 186 188 190 190 194 197 196 195 198 200 198 198 200 203 205 206 205 206 207 208 207 204
151 171 175 179 192 218 230 206 168 175 212 209 196 198 201 191 189 195 197 183 170 189 195 192 201 293 255 226 185 174 197 214 204 192 197 188 174 172 165 163 162 164 173 174 174 177 181 179 175 172 169 170 174 176 180 184 187 189 191 192 191 189 187 185 182 183 187 189 193 196 196 197 201 202 201 201 201 203 207 209 209 209 210 212 212 210
183 180 181 189 199 215 223 210 187 196 219 191 170 191 201 190 190 200 202 193 190 199 196 186 180 186 221 231 202 189 209 218 186 180 186 159 145 153 159 167 170 167 172 173 171 172 175 175 173 168 165 168 173 175 178 181 182 185 187 188 189 190 191 189 184 184 188 192 195 198 198 199 201 201 200 202 202 201 203 207 211 213 215 216 215 214